KPKD

Details ICAO KPKD
Name PARK RAPIDS MUNI KONSHOK FLD
Region United States
Timezone America/Chicago (UTC-6.0)
Plans Departing 0
Arriving 0
Stats Elevation 1,443 ft / 440 m (AMSL)
Location 46.900307° -95.073037°
Runways 2
Magnetic Variation 1.571° E
Sunrise 2017-02-19 13:18:58 UTC / 2017-02-19 07:18:58 Local
Sunset 2017-02-19 23:52:09 UTC / 2017-02-19 17:52:09 Local
Advertisement - Login to hide

Runways

ID Width Length Bearing (true) Bearing (mag) Surface Threshold Offset Overrun Length
13 100 ft / 30 m 5,491 ft / 1,674 m 135.15° 133.58° Asphalt 0 ft / 0 m 0 ft / 0 m
17 140 ft / 43 m 3,035 ft / 925 m 180.01° 178.44° Grass 0 ft / 0 m 0 ft / 0 m
31 100 ft / 30 m 5,491 ft / 1,674 m 315.16° 313.59° Asphalt 0 ft / 0 m 0 ft / 0 m
35 140 ft / 43 m 3,035 ft / 925 m 0.01° 358.44° Grass 0 ft / 0 m 0 ft / 0 m

Approach Navaids

Runway Type Ident Frequency Range Bearing (true) Bearing (mag) Slope Elevation
31 Localiser IPKD 110.90 MHz 18 nm / 33 km 315.19° 313.62° - 1,443 ft / 440 m (AMSL)
31 Glidescope IPKD 110.90 MHz 10 nm / 19 km 315.00° 313.43° 3.00° 1,443 ft / 440 m (AMSL)

Map

Weather

Temperature
Clouds and Precipitation
Forecast for 2017-02-20 06:00 UTC. Updated 43 minutes ago
Winds

METAR

KPKD 200553Z AUTO 14012KT 10SM CLR 07/03 A2973

TAF

Not found

Frequencies

Unicom 123.00 MHz CTAF/UNICOM
Warning: Do not use this data for real-world aviation or navigation. No guarantee of current accuracy is given.